sat.trackr.live / text

‹ back to catalog

STARLINK-30573

NORAD 58058 · 2023-158H

PAYLOAD ACTIVE UNKNOWN

§ Identity

Operator
Country
US
Launch date
2023-10-13
Launch site
AFETR
Launch vehicle
Mass (kg)
RCS (m²)

Purposes: comms

External: N2YO · Heavens-Above · Gunter

§ Orbital elements

Epoch: 2026-09-20T18:07:31.971360Z

Period
94.27 min
Inclination
43.0041°
Eccentricity
0.0001424
Mean motion
15.27578394 rev/d
Perigee alt
482.1 km
Apogee alt
484.0 km
Semi-major
6,861.2 km
B*
7.8534e-5
RAAN
5.3432°
Arg perigee
264.4611°
Mean anomaly
95.6078°
Rev number
16,340

§ Raw data

STARLINK-305731 58058U 23158H   26263.75523115  .00001899  00000+0  78534-4 0  99902 58058  43.0041   5.3432 0001424 264.4611  95.6078 15.27578394163402

JSON: /api/v1/satellites/58058 · /tle

For live sub-satellite position, see the globe view (requires WebGL).

§ Visibility from observer

Set your observer location to see the next 7 days of passes ≥ 10°. The values pass through the URL so the page stays shareable.

No JS? Fill the form by hand. The geolocation button needs JavaScript.